Location: PSU-Greenbush Astrophysical Observatory
(37.5140°N, 94.9880°W)
Time: 21:16:12
(UTC-06:00)

nSIGHT-1 - Visible Passes

Search period start: 27 February 2020 00:00
Search period end: 08 March 2020 00:00
Orbit: 297 x 304 km, 51.6° (Epoch: 26 February)

Date Brightness Start Highest point End Pass type
(mag) Time Alt. Az. Time Alt. Az. Time Alt. Az.
01 Mar ? 19:45:46 10° SW 19:47:04 25° SSW 19:47:04 25° SSW visible
02 Mar ? 19:53:47 10° WSW 19:55:36 34° W 19:55:36 34° W visible
03 Mar ? 20:02:09 10° W 20:03:50 20° NW 20:03:50 20° NW visible
04 Mar ? 20:11:01 10° NW 20:11:44 11° NNW 20:11:44 11° NNW visible
05 Mar ? 18:42:41 10° WSW 18:45:08 41° NW 18:47:37 10° NE visible
06 Mar ? 18:50:35 10° W 18:52:34 19° NNW 18:54:33 10° NNE visible
07 Mar ? 18:58:59 10° NW 18:59:55 11° NNW 19:00:51 10° N visible
